Location: Grossmotten
(48.5500°N, 15.3833°E)
Time: 00:49:55
(UTC+00:00)

PAYLOAD A - Pass Details

Date: 15 November 2019
Orbit: 693 x 831 km, 98.3° (Epoch: 05 December)

Event Time Altitude Azimuth Distance (km) Brightness Sun altitude
Rises 03:46:13 0° 11° (N) 3,305 7.4 -23.0°
Reaches altitude 10° 03:48:33 10° 8° (N) 2,390 6.6 -22.6°
Maximum altitude 03:53:46 60° 289° (WNW) 934 4.1 -21.7°
Enters shadow 03:57:23 21° 216° (SW) 1,797 5.6 -21.1°
